Location: Casaglia
(44.0333°N, 11.5167°E)
Time: 22:32:55
(UTC+00:00)

Cosmos 1758 Rocket - Pass Details

Date: 07 June 2020
Orbit: 602 x 636 km, 82.5° (Epoch: 14 July)

Event Time Altitude Azimuth Distance (km) Brightness Sun altitude
Exits shadow 00:15:28 57° 239° (WSW) 733 3.6 -21.7°
Maximum altitude 00:16:04 64° 280° (W) 689 3.7 -21.6°
Drops below altitude 10° 00:20:28 10° 3° (N) 2,006 7.3 -21.4°
Sets 00:22:45 0° 6° (N) 2,923 8.5 -21.3°
